SBFZ Airport Information

Runway Information
Runway 13 Length 8350 ft width 148 ft
Elevation 82 ft Threshold 0 ft Heading 105
Runway 31 Length 8350 ft Width 148 ft
Elevation 65 ft Threshold 0 ft Heading 285
Airport Frequencies
Type APP Name FORTALEZA Frequency 133 MHZ
Type ATIS Name ATIS Frequency 127.7 MHZ
Type GND Name GND Frequency 121.95 MHZ
Type OPS Name FORTALEZA Frequency 122.5 MHZ
Type TWR Name FORTALEZA Frequency 129 MHZ
Airport Navaids
Type VOR-DME Name Fortaleza Frequency 114100 KHZ
Type NDB Name Fortaleza Frequency 260 KHZ
Airport Weather Information & NOTAM
ADDS - METARS form results

(1010 UTC 18 August 2018)
 
METAR text: SBFZ 181000Z 13009KT CAVOK 24/18 Q1018
Conditions at: SBFZ (FORTALEZA/PINTO , BR) observed 1000 UTC 18 August 2018
Temperature: 24.0°C (75°F)
Dewpoint: 18.0°C (64°F) [RH = 69%]
Pressure (altimeter): 30.06 inches Hg (1018.0 mb)
Winds: from the SE (130 degrees) at 10 MPH (9 knots; 4.7 m/s)
Visibility: 6 or more miles (10+ km)
Ceiling: ceiling and visibility are OK
Clouds: unknown
Weather: no significant weather observed at this time